This is the latest recevied weather packets stored in our database for station/object WX7EM. If no packets are shown the sender has not sent any weather packets the latest 10 day(s).
| Time | Temp. | Humidity | Pressure | Rain* | Wind** | Luminosity | Snow |
|---|---|---|---|---|---|---|---|
| 1777415454 | 15.56° C | 52% | 1022.3 hPa | 0 mm | - | 285 W/m² | - |
| 1777415150 | 15.56° C | 56% | 1022.2 hPa | 0 mm | - | 214 W/m² | - |
| 1777414845 | 15.56° C | 59% | 1022.3 hPa | 0 mm | - | 232 W/m² | - |
| 1777414545 | 15.56° C | 58% | 1022.2 hPa | 0 mm | - | 238 W/m² | - |
| 1777414244 | 15° C | 58% | 1022.4 hPa | 0 mm | - | 223 W/m² | - |
| 1777413940 | 15° C | 56% | 1022.4 hPa | 0 mm | - | 227 W/m² | - |
| 1777413635 | 15° C | 58% | 1022.5 hPa | 0 mm | - | 247 W/m² | - |
| 1777413332 | 15° C | 57% | 1022.6 hPa | 0 mm | - | 232 W/m² | - |
| 1777413028 | 15° C | 58% | 1022.4 hPa | 0 mm | - | 258 W/m² | - |
| 1777412728 | 15° C | 60% | 1022.5 hPa | 0 mm | - | 272 W/m² | - |
| 1777412426 | 15° C | 62% | 1022.6 hPa | 0 mm | - | 249 W/m² | - |
| 1777412125 | 15° C | 60% | 1022.6 hPa | 0 mm | - | 305 W/m² | - |
| 1777411821 | 15° C | 60% | 1022.6 hPa | 0 mm | - | 360 W/m² | - |
| 1777411520 | 15.56° C | 61% | 1022.7 hPa | 0 mm | - | 383 W/m² | - |
| 1777411215 | 15° C | 62% | 1022.6 hPa | 0 mm | - | 435 W/m² | - |
| 1777410915 | 15° C | 63% | 1022.7 hPa | 0 mm | - | 413 W/m² | - |
| 1777410614 | 15° C | 61% | 1022.6 hPa | 0 mm | - | 362 W/m² | - |
| 1777410309 | 15.56° C | 60% | 1022.8 hPa | 0 mm | - | 396 W/m² | - |
| 1777410003 | 15.56° C | 59% | 1022.9 hPa | 0 mm | - | 403 W/m² | - |
| 1777409699 | 15° C | 63% | 1022.8 hPa | 0 mm | - | 552 W/m² | - |
| 1777409395 | 15° C | 62% | 1022.7 hPa | 0 mm | - | 520 W/m² | - |
| 1777409091 | 14.44° C | 61% | 1023 hPa | 0 mm | - | 430 W/m² | - |
| 1777408787 | 14.44° C | 58% | 1022.9 hPa | 0 mm | - | 413 W/m² | - |
| 1777408483 | 14.44° C | 60% | 1022.9 hPa | 0 mm | - | 300 W/m² | - |
| 1777408178 | 14.44° C | 63% | 1023.2 hPa | 0 mm | - | 248 W/m² | - |
* Rain latest hour (hover to see other rain measurements)
** Current wind speed in m/s (hover to see current wind gust speed)